Location: Unspecified
(0.0000°N, 0.0000°E)
Time: 05:38:46
(UTC+01:00)

SWIFT - Visible Passes

Search period start: 13 February 2016 00:00
Search period end: 23 February 2016 00:00
Orbit: 550 x 566 km, 20.6° (Epoch: 12 February)

Date Brightness Start Highest point End Pass type
(mag) Time Alt. Az. Time Alt. Az. Time Alt. Az.
15 Feb 4.8 20:52:03 10° NNW 20:52:31 12° NNW 20:52:31 12° NNW visible
16 Feb 4.4 20:47:08 10° NNW 20:48:44 17° NNW 20:48:44 17° NNW visible
17 Feb 3.8 20:42:22 10° NW 20:45:00 25° N 20:45:00 25° N visible
18 Feb 3.0 20:37:42 10° NW 20:41:18 38° N 20:41:18 38° N visible
19 Feb 2.4 20:33:08 10° WNW 20:37:20 57° NNE 20:37:38 55° NE visible
20 Feb 2.2 20:28:40 10° WNW 20:32:57 83° NNE 20:34:00 50° ESE visible
21 Feb 4.3 06:45:05 10° SW 06:48:38 26° SSE 06:52:12 10° ESE visible
21 Feb 2.5 20:24:18 10° WNW 20:28:33 68° SSW 20:30:21 33° SE visible
22 Feb 5.2 05:02:35 11° SSE 05:02:35 11° SSE 05:03:31 10° SE visible
22 Feb 3.7 06:40:23 10° SW 06:44:16 35° SSE 06:48:10 10° E visible
22 Feb 3.1 20:20:02 10° W 20:24:09 47° SSW 20:26:41 21° SE visible
